Location: Ariel
(45.9570°N, 122.5700°W)
Time: 15:53:33
(UTC-08:00)

Transit 4A - Pass Details

Date: 29 October 2020
Orbit: 862 x 982 km, 66.8° (Epoch: 03 December)

Event Time Altitude Azimuth Distance (km) Brightness Sun altitude
Rises 20:41:52 0° 314° (NW) 3,682 11.8 -28.6°
Reaches altitude 10° 20:47:01 10° 349° (N) 2,744 10.6 -29.5°
Maximum altitude 20:48:43 11° 5° (N) 2,671 10.3 -29.8°
Enters shadow 20:50:01 10° 17° (NNE) 2,716 10.3 -30.0°
